CZ-4C DEB, 43266

Orbit data source: Space-Track

CZ-4C DEB, 43266 is space debris in SSO originally from a launch on Sat, 31 Mar 2018 UTC launched from the Taiyaun Space Center, China (TSC). Debris objects in space refer to the collection of defunct objects orbiting the Earth. Examples of debris include non-operational satellites, rocket bodies, and fragments generated from explosions, collisions, or faulty payload assembly.

Loading next visibility...
Identifier
43266, 2018-031H
Orbit
SSO
Last TLE update
11 hours ago
Origin
Manufacturer
Unknown
Mission
Spacecraft
Bus & Motor
Unknown
Mass
Unknown
Launch date (UTC)
2018-03-31 (7 years ago)
Launch vehicle
Unknown
Launch site
Taiyaun Space Center, China (TSC)
Object type
Payload
Rocket body
Debris
Shape & HBR
Unknown
Radar Cross Section
Small (<0.1 m²)

Expand to show TLE details & history

TLE from 11 hours ago
0 CZ-4C DEB
1 43266U 18031H   25189.90454676  .00005810  00000-0  38632-3 0  9999
2 43266  98.1447 343.6123 0023374  19.0769 341.1327 15.07379644394901
Epoch: 2025-07-08T21:42Z
TLE epoch observation values (Epoch: 2025-07-08T21:42:32.84Z)
Latitude
-0.00002°
Longitude
90.88263°
Altitude
531.952 km
Speed
7.605 km/s
True Right ascension
22h 54m 26s
True Declination
0° 00' 00"
Sunlit
Object was in full shadow at epoch
Visualization orbit readout
Latitude
-71.58259°
Longitude
116.66544°
Altitude
570.918 km
Speed
7.574 km/s
Apparent Right ascension
06h 55m 25s
Apparent Declination
-68° 25' 27"
Sunlit
Object is in full shadow
Visualization observer readout
Local Sidereal Time
20:41:54
Azimuth
161.839° S
Elevation
-58.087°
Doppler factor
1
Orbital elements
Apogee altitude
557.4 km
Perigee altitude
525.053 km
Semi-major axis
6,919.363 km
Eccentricity
0.00234
Inclination
98.1447°
RAAN
343.6123°
Arg. of periapsis
19.0769°
True anomaly
Unknown
Mean anomaly
341.1327°
Eccentric anomaly
Unknown
Mean motion
3.77089 °/min
Orbital period
95.47 mins
BSTAR
0.00038632
Loading maneuver chart data...
Loading SW <> Apogee altitude chart data...
Loading historical data...
Loading historical data...
Loading historical data...
Loading historical data...
Loading historical data...
Loading historical data...
Loading historical data...

CZ-4C DEB Visibility forecast

Observer location: undefined°, undefined°

Span
Click to sort rows by Start time (UTC) header in descending order
Start Az.
Max El. time (UTC)
Max El. Az.
Max El.
End time (UTC)
End Az.
6 mins2025-07-09 10:35:13.888Z189.182° SSW2025-07-09 10:37:13.888Z231.777° WSW36.285°2025-07-09 10:41:13.888Z335.717° NNW
5 mins2025-07-09 23:46:13.888Z341.7° N2025-07-09 23:48:13.888Z295.881° NW28.812°2025-07-09 23:51:13.888Z229.917° WSW
|